Location: State Line Observation Field
(36.5320°N, 77.5360°W)
Time: 04:53:00
(UTC-04:00)

JUGNU - Visible Passes

Search period start: 09 May 2021 00:00
Search period end: 19 May 2021 00:00
Orbit: 836 x 864 km, 20.0° (Epoch: 08 May)

Date Brightness Start Highest point End Pass type
(mag) Time Alt. Az. Time Alt. Az. Time Alt. Az.
09 May ? 20:47:19 10° S 20:49:06 11° S 20:50:53 10° SSE visible
10 May ? 20:31:40 10° SSW 20:33:48 12° S 20:35:56 10° SSE visible
10 May ? 22:18:47 10° SSW 22:19:33 12° SSW 22:19:33 12° SSW visible
11 May ? 22:03:31 10° SW 22:05:26 14° SSW 22:05:26 14° SSW visible
12 May ? 21:48:16 10° SW 21:51:16 15° S 21:51:16 15° S visible
13 May ? 21:33:03 10° SW 21:36:04 14° S 21:37:04 14° S visible
14 May ? 21:17:51 10° SW 21:20:45 14° S 21:22:49 12° SSE visible
15 May ? 21:02:41 10° SW 21:05:28 14° S 21:08:15 10° SSE visible
16 May ? 20:47:33 10° SW 20:50:10 13° S 20:52:46 10° SSE visible
